Wind_Speed
7 6 5 4 3 2 2 1 1 2 3 4 4 6 6 7 8 8 7 7 9 11 11 11 12 13 13 14 14 14 14 15 16 17 18 17 17 16 15 14 14 14 14 13 13 13 13 14 14 15 15 15 16 16 16 16 15 15 15 15 15 15 14 14 14 13 13 12 11 11 11 11 10 9
7 6 5 4 3 3 2 2 1 2 2 3 4 6 7 7 8 9 9 9 10 12 13 14 14 14 14 14 14 14 15 16 17 17 18 18 18 17 16 16 15 15 15 14 14 14 13 13 13 14 15 16 16 16 16 16 15 15 15 15 15 14 14 13 13 13 12 12 11 10 10 9 9 8
7 6 5 3 3 3 3 3 3 3 3 4 5 6 8 8 9 10 11 12 12 12 14 14 15 15 15 15 15 16 17 18 18 18 19 19 19 18 18 18 17 16 16 15 15 14 14 14 14 14 14 15 16 17 17 17 17 16 15 14 14 14 14 13 13 12 12 11 11 11 10 9 9 8
6 5 4 4 4 4 5 6 6 6 6 6 7 8 9 9 10 11 12 13 14 13 14 14 15 15 16 17 18 19 19 19 20 20 20 20 20 20 18 18 19 19 18 17 17 16 15 15 15 14 14 15 15 16 17 18 19 18 16 15 14 14 13 13 13 13 13 12 11 11 10 10 10 9
4 4 5 6 7 6 7 8 9 9 9 10 10 10 10 11 11 12 13 14 15 15 14 14 15 16 17 18 19 20 21 21 21 21 20 20 20 20 19 17 18 21 21 19 18 18 17 16 16 15 15 15 15 15 15 17 18 19 18 16 16 15 14 14 14 14 14 13 13 12 12 11 10 10
6 7 7 8 7 7 7 8 9 9 11 12 12 12 12 12 12 13 14 15 15 15 15 15 16 16 17 18 18 19 20 20 20 20 19 19 19 20 21 18 17 19 20 20 19 19 18 18 17 17 16 16 15 15 15 16 17 17 18 17 16 16 16 16 16 15 14 14 14 14 14 13 13 12
10 10 9 9 9 9 9 10 10 10 11 12 12 12 13 13 13 13 14 15 15 16 16 16 16 17 17 17 17 18 18 18 18 18 18 19 19 19 20 20 18 18 19 19 19 19 19 18 18 17 17 16 16 16 16 16 16 17 17 17 17 17 18 18 18 17 16 15 15 15 15 15 15 15
12 11 11 11 11 12 12 12 12 11 12 13 13 13 13 13 13 14 14 15 15 16 17 17 17 18 18 18 18 18 18 18 18 19 19 19 20 20 19 19 18 18 18 18 19 19 19 19 19 18 18 17 17 17 17 17 17 17 17 17 18 19 19 19 18 18 17 16 17 17 16 16 16 16
14 14 13 13 13 14 14 14 13 12 13 15 15 14 14 14 14 15 15 16 16 17 18 18 18 19 19 19 19 19 19 19 19 20 20 21 21 21 19 18 17 18 18 18 19 20 20 20 20 20 20 20 19 19 19 18 18 18 18 19 20 21 21 21 20 19 18 18 18 18 18 18 17 17
15 14 14 15 15 16 16 15 14 13 14 16 16 15 15 15 15 16 16 17 18 18 18 18 18 18 19 19 20 20 20 20 20 21 22 22 23 22 21 19 18 18 18 18 18 19 20 20 21 21 22 22 22 22 21 21 21 21 21 21 22 22 22 22 22 22 21 20 19 19 19 19 19 18
15 15 15 16 16 17 17 17 16 16 16 17 17 16 15 15 16 17 17 18 18 18 18 18 18 18 19 20 20 21 22 22 23 23 23 23 23 23 22 21 20 20 20 19 19 19 20 21 21 22 23 24 24 24 24 23 23 23 23 23 24 24 24 24 24 24 24 24 22 21 20 20 19 19
17 17 18 18 18 18 18 19 20 19 19 18 19 19 18 17 18 19 19 19 19 19 19 19 20 19 19 20 20 22 24 25 25 25 25 24 24 24 23 23 22 22 22 21 22 22 22 23 23 23 24 25 26 26 26 26 26 25 25 25 25 26 26 25 25 25 25 24 24 23 22 21 21 21
18 18 19 20 21 21 21 20 21 21 20 19 20 20 21 21 21 21 21 21 21 21 21 21 21 21 20 20 21 23 24 25 25 25 24 24 25 25 24 24 24 24 23 23 24 25 25 25 25 25 26 26 27 28 28 28 28 28 28 27 27 27 26 26 26 26 25 25 24 24 24 24 24 23
19 20 20 21 21 22 22 21 20 20 21 21 20 21 22 23 22 22 22 23 23 23 22 22 22 21 21 22 23 25 25 24 23 22 22 23 24 25 25 25 25 26 26 26 27 27 28 28 29 30 30 30 29 29 29 30 30 31 31 31 30 30 29 28 27 26 26 26 25 25 25 26 26 27
20 21 21 22 22 22 23 22 22 22 22 22 23 23 23 23 23 23 23 24 24 24 24 23 23 23 24 25 25 26 25 24 22 22 22 22 24 25 25 26 27 28 30 30 30 30 30 31 33 34 34 33 32 31 31 31 31 31 32 32 32 32 32 31 29 28 27 26 26 26 26 27 27 28
20 22 22 22 22 23 23 24 24 24 24 25 25 26 25 25 25 25 25 25 25 26 26 25 24 25 26 27 27 27 27 26 25 25 25 24 25 27 27 28 29 30 32 33 34 34 35 35 36 36 35 34 33 32 32 32 32 32 32 32 32 32 32 32 31 30 29 28 26 24 25 26 26 27
23 24 24 23 23 24 25 25 25 25 26 26 27 27 27 27 27 27 26 27 27 28 27 25 25 26 28 29 29 30 31 31 30 30 29 28 28 29 31 32 32 33 35 36 37 38 38 39 38 37 36 35 35 34 34 33 33 33 33 32 32 32 32 31 31 31 30 30 28 25 25 28 29 27
27 27 26 25 24 24 26 26 26 26 26 27 28 29 29 30 30 29 29 29 30 30 29 28 28 29 31 32 31 32 33 34 34 35 35 34 33 33 33 35 36 36 37 39 40 40 40 40 39 38 37 36 36 35 35 34 34 33 33 32 31 31 31 31 31 31 31 31 30 29 29 32 34 33
28 27 27 26 25 26 27 28 28 28 28 28 28 29 30 31 32 33 33 32 33 32 31 30 31 33 34 35 35 35 35 35 35 35 36 36 36 37 37 37 38 38 40 41 42 41 40 40 39 38 37 36 36 35 34 34 33 33 33 32 32 32 32 32 32 32 32 32 32 32 32 34 38 40
29 28 28 27 27 27 28 29 30 30 30 29 29 29 31 32 33 34 35 35 35 34 33 33 34 36 37 39 39 38 37 36 36 36 37 38 39 40 41 40 40 40 41 41 40 40 40 40 39 38 37 36 35 35 34 33 33 33 34 34 34 34 34 34 35 35 35 35 35 35 35 36 38 40
30 30 30 29 28 28 28 30 31 31 31 31 31 31 31 32 33 34 35 36 37 37 38 39 39 39 39 40 40 40 40 39 39 39 39 40 41 42 43 42 41 41 40 38 37 36 37 37 37 37 36 35 34 34 34 34 34 34 35 35 36 36 37 37 38 38 38 39 39 39 39 40 40 41
32 32 31 31 31 30 31 31 32 33 34 33 33 32 32 33 34 35 35 36 37 38 39 38 38 39 40 41 42 42 42 41 41 41 40 40 42 42 42 41 39 37 35 33 32 32 32 32 33 34 34 34 34 34 35 36 36 37 37 38 39 39 40 40 41 41 41 42 42 42 43 44 44 45
34 35 34 33 33 33 33 33 34 34 35 35 34 33 33 33 35 36 37 37 37 36 35 34 36 40 42 42 43 42 41 41 41 41 41 41 40 40 39 37 35 32 30 29 29 29 30 30 31 32 33 35 35 36 36 37 38 39 40 41 41 41 42 42 43 43 43 44 44 44 45 46 47 48
38 38 36 36 36 36 36 35 35 36 36 36 36 37 37 37 38 39 39 39 38 37 34 34 37 40 41 41 41 41 41 41 41 40 40 39 37 36 34 32 30 28 26 27 28 29 30 31 32 33 34 35 36 37 38 39 39 40 41 41 41 42 42 42 43 43 44 45 45 46 46 47 48 49
40 39 38 37 37 38 38 37 37 38 38 39 40 41 41 40 40 41 41 42 40 37 35 35 38 41 42 41 41 40 40 39 38 37 36 34 32 30 29 28 27 26 26 27 29 30 31 32 34 35 36 37 37 38 39 39 39 40 41 42 42 43 44 44 45 45 46 46 46 47 48 48 49 50
42 41 40 40 39 40 40 39 40 40 42 43 44 43 42 41 40 40 40 40 38 36 35 37 40 42 42 41 40 39 37 35 33 32 31 29 27 27 27 27 27 27 28 29 31 32 33 33 34 35 37 38 39 40 41 41 41 42 43 44 44 44 45 46 47 47 48 48 49 49 50 51 52 53
44 44 43 43 42 42 42 41 42 43 44 45 45 44 41 39 38 38 38 38 37 36 36 39 41 43 42 40 38 36 33 30 28 27 25 25 26 26 26 27 28 29 30 31 32 33 34 35 36 37 38 39 40 41 43 44 44 44 45 46 46 47 47 48 49 49 50 51 52 53 54 54 55 56
47 47 46 45 45 45 44 44 44 45 45 44 42 41 39 38 38 37 37 37 38 38 39 40 41 40 37 35 32 30 27 25 25 24 24 25 26 26 27 28 29 30 31 32 34 35 36 37 38 39 41 42 43 44 44 46 46 47 47 48 49 50 50 51 52 52 53 55 56 57 58 59 59 61
49 49 48 47 46 46 47 46 45 45 44 41 39 38 38 38 37 37 37 38 38 38 37 35 32 29 27 26 24 23 23 23 24 24 25 26 26 27 28 29 30 32 33 35 36 38 39 40 41 42 44 45 46 46 47 48 49 49 50 51 52 53 54 55 56 56 57 59 60 60 62 63 64 65
50 50 49 48 47 46 45 45 45 44 41 38 36 37 36 35 35 35 36 35 34 32 30 27 25 23 22 21 21 21 22 22 23 24 25 27 28 29 31 32 33 35 36 37 38 40 41 42 43 44 45 46 47 48 49 50 51 52 52 53 54 56 57 58 59 60 61 62 63 64 65 66 67 68
50 49 49 48 46 44 43 43 44 42 37 35 34 34 33 33 33 32 31 30 27 26 24 22 20 20 19 19 20 21 22 24 25 27 29 30 32 33 34 35 37 38 39 40 40 42 43 44 45 46 47 48 49 50 51 52 53 54 55 56 57 58 59 60 62 62 63 65 67 68 69 70 71 72
48 47 48 47 45 43 43 43 41 37 33 32 32 31 30 29 28 26 24 23 21 20 19 18 18 19 20 21 23 24 26 28 29 31 32 33 34 35 36 38 39 40 41 42 43 44 45 46 47 48 49 50 52 52 54 55 56 56 57 58 60 61 62 63 65 66 67 68 70 71 72 73 74 75
50 49 48 46 45 43 42 40 36 32 28 27 26 25 24 23 22 21 21 20 19 18 18 19 20 21 23 25 27 28 30 31 33 34 35 36 37 38 39 40 41 43 44 45 47 48 49 50 51 51 52 53 54 55 56 57 58 59 60 61 62 64 65 66 68 69 70 70 72 73 74 75 75 75
50 48 45 43 42 41 38 33 29 25 22 21 20 20 19 19 19 19 19 19 19 19 20 22 23 25 27 29 31 32 34 35 35 36 37 38 39 41 42 43 44 45 47 48 49 50 52 53 54 55 56 56 57 57 58 59 60 62 63 65 66 67 68 69 70 72 72 73 73 73 73 73 73 72
43 41 40 39 38 35 30 25 21 19 18 18 18 17 17 17 17 18 18 19 21 22 23 25 27 29 31 32 34 35 36 37 38 39 40 41 42 43 44 46 46 48 49 50 51 52 53 54 55 56 57 59 60 61 61 62 64 65 66 67 68 69 70 71 72 73 73 73 72 70 69 68 67 65
38 38 38 37 32 27 22 19 18 18 17 17 17 16 17 17 18 19 21 22 24 25 27 29 30 32 34 35 36 38 38 39 40 41 42 43 44 46 47 48 49 50 51 52 52 53 54 55 57 58 59 61 63 65 65 64 66 68 69 69 69 70 71 71 71 71 70 69 66 64 62 61 59 57
38 38 36 31 25 19 17 16 16 16 16 16 16 16 18 19 20 22 24 25 27 28 30 31 33 34 36 37 38 39 40 41 42 43 44 46 47 48 49 50 51 52 53 53 54 55 56 57 58 60 62 63 64 66 67 67 67 68 69 70 70 70 69 69 67 65 63 60 58 56 55 54 53 52
34 32 28 23 18 16 14 14 14 15 15 16 17 18 19 21 23 25 26 28 29 30 32 33 35 36 37 39 40 41 42 43 44 45 46 48 49 50 51 52 52 53 54 55 56 57 58 59 60 62 63 64 65 66 67 68 68 68 68 68 68 66 64 62 60 57 55 53 52 51 51 50 50 49
25 21 18 15 14 13 13 13 14 14 15 17 19 20 22 24 25 26 27 29 30 31 33 35 36 38 39 40 42 43 44 45 46 47 48 49 50 51 52 52 53 54 55 57 58 59 60 61 62 63 64 65 66 67 67 68 68 68 66 64 62 60 57 54 52 51 50 49 49 49 49 48 48 47
15 13 12 11 11 11 12 13 14 16 18 19 21 23 24 25 26 27 28 30 32 34 35 37 38 40 41 42 43 44 45 46 47 48 49 50 51 51 52 53 54 55 57 58 59 60 61 62 63 65 65 66 67 67 67 66 65 64 61 59 56 53 50 48 48 47 47 47 47 47 47 47 47 46
11 10 10 10 11 12 13 15 16 18 20 22 23 24 25 26 27 29 31 33 34 36 38 39 40 42 43 44 45 46 46 47 48 49 50 50 51 51 52 54 56 57 59 60 61 62 64 64 65 66 66 66 66 65 64 62 59 57 55 53 50 47 46 45 45 45 45 45 45 45 45 44 44 42
10 10 10 11 12 14 15 17 19 20 22 23 24 25 27 28 30 32 34 36 37 38 40 41 42 43 44 45 46 46 47 48 49 49 50 50 52 53 55 56 58 59 61 62 64 64 65 66 66 65 65 64 62 61 59 56 53 51 49 48 47 45 44 44 44 44 44 44 44 42 42 41 40 39
11 11 12 13 14 16 18 19 21 22 24 25 26 28 29 31 33 34 36 38 39 40 42 43 44 45 45 46 46 47 48 48 48 49 50 52 54 55 57 59 60 62 63 64 64 65 65 65 64 63 61 60 58 56 53 50 48 46 44 44 44 43 43 43 43 43 43 42 41 39 38 37 37 37
12 13 15 16 18 20 21 22 23 24 25 27 28 30 31 33 35 37 39 40 41 42 43 44 45 45 46 46 46 47 47 48 49 50 52 54 56 57 59 61 62 63 63 64 64 64 64 63 61 60 58 55 53 51 48 46 43 42 41 41 41 42 42 41 41 40 39 38 38 37 36 35 35 36
14 16 17 19 20 21 22 23 24 25 27 29 30 32 34 36 38 39 41 42 43 44 44 44 45 45 45 46 46 47 48 49 51 52 54 56 58 59 60 61 62 63 64 64 63 62 61 60 58 56 54 51 48 46 43 41 40 40 40 39 38 38 37 36 36 36 35 35 34 34 33 33 33 33
Wind_Direction
229 231 230 232 236 234 233 251 303 323 333 341 338 333 329 328 329 330 328 323 323 326 328 330 332 331 330 330 331 334 336 339 341 342 343 344 344 345 345 344 341 337 335 332 329 330 335 342 347 350 352 353 356 359 1 4 6 6 5 5 6 8 12 15 16 16 17 18 20 20 18 19 22 28
235 237 235 236 243 242 241 247 267 287 311 323 320 315 313 314 317 319 322 325 327 328 328 330 332 332 332 332 333 335 335 335 337 336 335 336 337 339 338 337 337 336 332 329 326 323 324 329 334 341 345 347 349 352 354 356 358 1 3 3 2 1 2 5 8 10 10 9 8 7 7 7 6 5
237 240 239 240 248 252 253 248 251 265 283 296 299 299 301 305 311 317 320 324 328 329 329 329 330 331 331 331 332 333 332 332 332 331 330 330 331 333 332 331 330 330 330 327 324 320 317 317 321 328 335 339 341 343 344 346 347 350 354 357 358 356 354 353 354 356 358 0 359 356 352 350 349 347
237 247 263 282 290 289 292 293 293 294 296 295 294 296 298 302 308 313 316 320 324 328 328 326 325 325 327 328 329 329 328 328 327 327 326 326 326 326 326 325 324 323 323 323 322 320 316 314 316 319 324 329 332 332 334 336 337 338 341 345 349 351 350 347 344 343 344 345 346 345 341 336 331 328
258 276 280 282 287 289 294 301 302 303 304 302 297 297 300 303 306 310 313 316 319 323 324 323 322 322 323 324 324 322 322 323 323 322 322 323 323 322 321 322 322 320 320 320 320 320 319 318 318 318 319 321 323 323 324 327 329 329 330 333 337 341 343 342 338 335 333 333 334 333 331 327 321 315
258 254 251 256 267 275 282 289 290 292 299 299 297 298 300 302 304 306 309 311 314 318 319 320 320 320 319 319 319 318 318 321 321 321 321 322 323 323 321 321 320 317 317 320 320 319 319 319 320 319 319 318 317 317 317 319 321 322 322 324 327 330 332 333 331 328 324 323 322 322 321 319 315 309
251 252 254 260 267 272 277 281 282 285 291 292 291 293 296 297 299 302 303 305 309 311 313 315 315 315 316 316 317 317 316 318 318 318 318 317 319 321 319 318 316 313 315 318 318 317 317 317 317 316 315 314 313 312 313 313 313 313 315 317 319 321 322 324 324 322 319 316 314 313 312 311 310 306
255 257 258 261 264 268 271 272 274 282 287 286 284 287 290 293 295 296 297 299 302 304 306 308 310 312 313 313 314 313 312 312 312 311 312 312 313 315 314 312 311 309 310 313 313 314 314 314 314 313 312 311 309 308 308 308 308 308 309 310 312 313 314 315 316 315 315 314 311 308 305 303 302 300
257 257 257 259 262 265 268 268 270 278 283 285 286 287 289 291 291 291 292 293 295 298 301 304 306 308 310 311 312 312 311 310 310 310 311 310 310 310 310 309 308 306 307 308 309 309 309 309 309 309 308 308 307 306 307 307 306 306 306 306 306 307 309 310 310 308 307 308 308 305 301 298 296 295
262 265 266 266 265 265 267 268 272 278 283 285 289 290 290 291 292 292 294 295 297 300 302 303 305 307 309 311 313 315 314 313 313 313 314 312 310 308 306 306 307 306 305 304 304 304 303 303 303 303 303 303 303 303 303 302 302 301 302 301 302 303 304 305 306 305 304 304 304 302 299 295 293 292
267 270 272 273 272 271 273 274 277 284 287 286 288 290 291 294 296 296 296 297 300 302 302 302 301 303 307 310 313 315 314 312 312 312 313 311 308 305 303 303 304 305 305 306 306 305 303 302 302 302 302 301 300 299 298 297 296 296 296 296 296 297 298 299 300 300 301 302 302 302 299 294 290 289
267 270 273 277 278 277 277 276 275 279 283 285 287 288 289 294 297 297 297 296 296 297 297 296 296 297 301 304 308 310 309 308 307 308 308 307 306 304 302 300 301 302 304 306 307 306 305 305 304 303 302 301 300 300 299 298 298 297 295 294 293 293 293 293 294 294 294 295 297 297 296 293 289 286
268 271 273 277 280 280 279 276 274 276 279 283 284 284 285 289 291 292 293 293 292 292 293 293 293 294 296 299 303 307 306 304 304 306 308 307 305 304 303 301 299 300 301 303 304 305 306 306 306 305 303 301 300 300 301 301 301 300 299 297 295 293 291 290 290 290 290 290 291 292 292 291 289 287
267 269 272 275 278 280 279 278 278 278 280 283 283 283 285 286 287 288 290 291 291 292 293 293 293 294 294 296 302 306 306 304 302 303 307 309 308 306 305 303 302 301 301 301 301 302 304 305 306 306 304 302 300 298 298 299 300 300 300 299 298 296 293 290 289 288 288 289 289 289 288 289 288 287
265 267 270 273 277 280 282 283 282 279 279 281 282 283 284 284 285 287 289 291 292 292 292 291 291 292 293 295 299 303 304 301 299 299 302 307 309 308 307 306 304 303 303 302 302 301 302 305 306 306 304 301 298 297 296 297 297 298 298 298 298 297 295 292 290 287 287 287 288 290 293 293 289 286
266 266 269 272 275 278 279 280 280 279 280 281 282 283 283 284 284 285 288 290 290 290 291 289 288 289 292 294 297 299 299 297 295 294 296 301 305 305 305 304 304 305 304 304 303 301 301 303 305 305 303 300 297 295 294 295 295 296 296 296 296 296 295 293 291 289 288 287 287 291 294 289 281 279
266 266 270 274 277 278 279 279 280 281 282 283 284 284 285 286 285 285 288 291 290 289 289 287 287 290 291 294 296 297 296 295 292 290 291 295 300 301 300 300 300 301 302 303 302 301 300 300 302 302 302 300 297 295 293 293 294 295 295 295 294 294 293 292 291 290 289 287 286 284 280 275 271 270
265 266 271 275 277 279 280 281 282 283 284 284 286 288 290 290 289 288 291 293 290 289 287 285 287 290 291 294 297 297 297 297 294 288 286 289 294 295 295 295 296 296 298 300 301 299 297 297 298 298 298 298 296 295 294 294 294 296 296 297 296 295 294 293 292 291 290 288 285 280 274 272 273 273
264 266 270 272 273 273 275 278 281 283 283 285 287 290 292 292 292 291 292 291 290 290 288 286 288 289 290 292 295 296 297 299 297 292 286 285 289 293 293 293 293 294 295 297 297 296 295 295 296 296 296 297 296 294 294 294 295 296 296 297 297 297 296 296 294 293 292 290 288 284 278 275 275 277
264 266 266 266 267 269 274 278 280 281 283 285 287 289 290 290 291 291 290 290 291 291 289 289 290 289 289 291 294 295 295 295 295 293 289 284 285 291 294 293 291 291 292 293 292 291 292 293 294 293 293 294 295 294 294 293 293 293 293 294 294 294 295 295 294 294 293 292 291 289 286 282 279 279
265 265 264 265 265 267 271 274 277 279 282 284 286 287 288 289 289 290 290 290 290 290 289 290 292 292 291 292 293 293 293 293 293 292 290 286 285 289 292 291 290 290 290 289 287 287 289 290 290 289 289 289 289 290 291 291 291 291 291 292 292 292 292 292 292 291 291 291 290 290 288 287 285 284
267 266 266 267 268 269 270 272 275 278 281 283 284 285 287 288 289 290 290 290 291 292 293 294 295 295 295 293 293 292 291 292 292 292 291 288 287 288 288 288 288 288 286 285 284 285 287 287 287 287 287 287 287 286 287 288 289 289 290 290 290 291 291 290 290 290 289 289 289 288 288 287 286 286
266 266 267 267 268 271 273 275 276 278 280 281 282 282 284 287 288 289 290 292 293 294 295 296 296 296 296 294 293 292 290 289 290 291 291 288 287 286 287 287 285 283 282 282 284 286 288 287 288 288 288 289 289 288 288 288 288 288 287 287 288 288 289 289 289 290 290 290 290 289 289 288 287 287
264 265 267 268 268 270 273 275 276 277 279 281 282 282 283 284 287 289 290 291 291 290 290 293 295 295 294 293 291 290 288 288 289 290 288 285 283 283 283 283 282 282 284 286 287 288 289 289 289 289 288 288 289 289 289 289 289 289 289 289 290 290 290 290 290 291 291 290 290 290 289 288 288 287
265 265 266 268 269 271 273 274 276 278 280 283 283 282 283 284 287 288 288 288 289 288 289 290 290 289 289 289 287 285 285 285 285 285 283 280 279 279 279 280 281 283 287 288 288 288 288 289 289 290 290 290 290 290 290 291 292 292 292 293 293 293 293 292 292 291 291 290 290 290 289 289 289 288
266 266 267 269 272 274 275 275 276 277 280 283 285 284 284 285 286 286 286 286 287 286 286 286 286 286 286 285 283 282 281 280 279 279 278 278 279 280 282 284 285 287 287 287 288 288 288 289 290 291 293 294 294 295 295 295 295 295 294 294 294 294 294 294 293 293 292 292 292 291 291 291 291 290
268 268 269 271 273 275 276 277 277 277 280 283 285 284 284 284 284 284 284 284 285 285 284 284 284 284 284 282 280 280 279 277 277 278 279 281 283 285 286 287 288 288 289 289 290 291 292 293 293 294 295 295 295 296 296 296 296 296 296 296 295 295 295 295 294 294 294 294 293 293 293 292 291 291
268 269 269 271 272 274 275 276 276 278 280 282 282 281 281 281 281 282 282 283 284 284 284 282 281 280 280 280 280 281 280 280 281 282 283 284 284 285 286 287 288 290 291 293 294 294 295 296 296 296 297 297 297 297 297 297 297 297 297 297 297 297 296 296 295 295 294 294 294 293 293 292 292 291
267 268 269 270 271 273 275 275 276 277 279 279 277 277 278 278 279 280 281 281 281 280 279 278 278 279 281 282 284 284 284 284 284 284 285 286 287 287 289 290 292 294 296 297 298 298 298 298 298 298 298 298 298 298 298 298 298 298 298 298 298 297 297 296 296 296 295 295 294 294 294 294 293 293
265 267 269 271 272 275 275 274 274 275 275 274 274 275 276 277 278 278 277 277 277 277 277 279 280 283 284 285 286 287 288 289 291 292 294 295 296 297 297 298 298 299 298 298 298 298 298 298 298 298 298 298 298 298 298 298 298 298 299 298 298 298 298 297 297 297 297 297 296 296 296 295 295 295
264 267 269 271 272 274 274 273 271 270 269 270 272 274 275 275 276 276 277 277 278 279 281 282 283 285 286 289 292 296 298 300 301 301 301 301 300 300 300 300 299 299 298 298 298 298 298 298 298 298 298 299 299 299 299 299 299 300 300 299 299 299 299 299 299 299 299 299 298 298 298 297 297 296
265 268 271 272 272 271 270 268 265 262 262 266 270 271 272 273 274 275 276 277 278 279 281 283 285 290 294 298 302 303 303 303 302 301 300 299 299 299 299 299 299 299 300 300 300 300 300 300 300 300 300 301 301 301 301 301 301 301 301 301 301 301 301 301 300 300 300 300 299 299 298 297 296 296
267 270 272 271 269 266 263 260 257 256 259 263 265 267 267 268 269 271 274 277 280 285 289 293 297 300 302 303 303 302 301 301 300 300 300 300 300 300 300 301 301 302 302 303 303 303 303 303 303 303 302 302 302 302 302 303 303 302 302 302 302 302 301 301 301 300 300 299 299 298 297 296 295 294
267 268 267 265 261 258 254 251 252 254 256 257 259 261 263 265 269 274 279 285 291 296 299 301 302 302 302 301 301 301 301 301 301 301 301 301 301 301 302 302 303 303 304 304 304 304 304 304 304 304 304 304 303 303 304 304 304 303 303 303 303 302 302 301 301 300 299 299 298 297 296 295 294 294
262 261 259 256 252 248 245 243 244 247 248 250 254 258 263 270 277 284 290 295 298 299 300 300 300 300 300 301 301 301 302 301 302 302 302 302 302 302 303 303 303 304 304 305 305 305 305 305 305 305 305 306 305 305 305 305 305 304 304 303 303 302 302 301 300 299 299 298 297 296 295 295 294 294
256 255 252 248 242 237 234 234 236 239 244 250 257 264 273 281 287 292 295 296 296 297 297 297 298 299 300 301 301 301 302 302 302 302 303 303 303 303 303 304 305 305 306 306 306 306 305 306 306 306 307 307 307 306 306 306 305 305 304 304 303 302 302 301 300 299 298 298 297 296 296 295 295 295
252 248 244 237 229 226 228 232 237 243 251 260 269 277 284 288 290 292 292 292 293 295 295 297 298 298 299 300 300 301 301 302 302 303 303 303 304 304 305 306 306 306 306 306 306 306 307 307 307 308 308 307 307 306 306 306 305 304 304 303 303 302 301 301 300 300 299 298 297 296 295 295 295 296
242 237 232 225 220 222 228 236 246 255 264 272 279 283 286 287 288 289 290 291 293 294 295 297 298 298 299 300 300 301 301 302 302 303 303 304 305 306 306 306 306 306 306 306 307 307 308 308 308 308 307 307 306 306 306 306 305 305 304 303 303 302 302 301 300 299 298 297 297 297 297 297 298 298
229 225 222 222 226 233 242 252 262 269 275 280 283 285 286 286 287 289 291 292 294 295 296 297 298 299 300 300 301 301 302 302 303 304 305 305 306 306 306 306 306 307 307 308 308 309 309 308 308 307 307 307 306 306 306 306 305 305 304 303 303 302 301 300 299 299 298 298 299 300 301 301 301 302
220 221 225 232 242 252 261 269 274 279 282 283 284 285 286 287 289 291 293 294 296 297 298 299 300 300 301 301 302 302 303 303 304 304 305 304 305 305 306 306 307 308 309 309 309 309 309 308 308 308 308 308 307 307 306 306 305 305 304 303 302 302 300 299 299 299 300 302 303 303 304 304 304 304
226 231 238 247 256 264 270 276 280 283 284 284 285 287 288 290 292 293 295 297 298 299 300 300 301 301 301 302 302 303 303 304 304 304 304 304 305 306 307 308 308 308 308 308 308 309 309 309 309 309 309 308 308 307 307 306 305 305 304 303 303 302 300 300 300 301 303 304 305 305 304 304 305 305
241 246 254 261 267 273 278 281 283 283 284 284 286 288 289 292 294 296 297 298 299 300 301 301 301 302 302 303 303 303 303 303 303 304 305 306 307 308 308 308 308 308 308 308 309 309 310 310 310 309 309 308 308 307 307 306 306 305 304 303 303 303 303 303 304 304 305 305 305 304 304 304 304 305
252 259 265 270 275 278 280 281 281 282 284 285 287 289 291 293 295 297 298 300 301 301 302 302 303 303 302 302 302 302 303 303 305 306 307 307 307 308 308 308 308 308 309 309 310 311 311 311 310 310 309 308 308 308 307 307 306 305 304 304 305 306 307 306 306 306 305 305 304 304 303 303 304 304
263 269 272 274 276 278 279 280 281 283 285 287 289 291 293 296 298 300 301 302 302 302 302 302 302 301 301 301 302 303 304 306 307 307 307 307 307 308 308 309 309 310 311 311 312 312 312 311 310 310 309 309 308 308 308 307 306 306 306 307 308 308 308 308 308 307 307 307 306 306 305 305 304 304
270 273 274 276 277 279 280 282 284 286 288 290 293 295 298 299 301 301 301 301 301 301 300 300 300 301 302 303 304 305 306 307 307 307 307 308 309 310 310 311 311 312 312 313 312 312 312 311 310 309 309 309 308 308 308 308 308 308 309 310 310 309 310 310 310 311 311 311 310 310 309 308 307 306
Height
5934 5934 5934 5934 5934 5933 5933 5933 5932 5932 5932 5931 5931 5931 5930 5930 5929 5929 5929 5929 5928 5928 5927 5927 5926 5925 5924 5923 5922 5921 5919 5918 5917 5915 5914 5913 5912 5911 5910 5909 5908 5906 5905 5904 5903 5902 5901 5899 5898 5897 5895 5894 5893 5891 5890 5889 5888 5887 5885 5883 5882 5881 5879 5878 5877 5876 5875 5874 5874 5873 5873 5872 5872 5871
5933 5933 5933 5933 5933 5933 5933 5932 5932 5932 5931 5931 5930 5930 5929 5929 5928 5928 5928 5928 5927 5927 5926 5925 5925 5924 5923 5922 5921 5920 5919 5917 5916 5915 5913 5912 5911 5910 5909 5908 5907 5906 5905 5904 5902 5901 5900 5899 5898 5897 5896 5894 5893 5892 5891 5890 5888 5887 5886 5884 5883 5881 5880 5879 5878 5877 5876 5875 5874 5873 5873 5872 5872 5872
5932 5932 5932 5933 5933 5933 5933 5932 5932 5932 5931 5930 5930 5929 5929 5928 5928 5927 5926 5926 5926 5926 5925 5924 5924 5923 5922 5921 5920 5919 5918 5917 5915 5914 5912 5911 5910 5909 5908 5907 5905 5905 5904 5902 5901 5900 5899 5898 5897 5897 5896 5895 5893 5892 5891 5890 5888 5887 5886 5884 5883 5882 5880 5879 5878 5877 5876 5875 5874 5873 5873 5872 5872 5871
5932 5933 5934 5934 5934 5934 5934 5933 5933 5932 5931 5930 5930 5929 5928 5927 5927 5926 5926 5925 5925 5924 5924 5924 5923 5922 5921 5920 5919 5918 5917 5916 5914 5913 5911 5910 5909 5908 5907 5906 5904 5903 5902 5901 5900 5899 5898 5897 5897 5896 5895 5894 5893 5892 5891 5889 5888 5887 5885 5884 5883 5882 5880 5879 5878 5877 5876 5875 5874 5873 5872 5872 5871 5871
5934 5934 5934 5934 5934 5933 5933 5933 5933 5932 5931 5931 5930 5929 5928 5927 5926 5926 5925 5924 5924 5924 5923 5923 5922 5921 5920 5919 5918 5917 5916 5915 5913 5912 5911 5909 5908 5906 5905 5904 5903 5901 5900 5899 5898 5897 5897 5896 5895 5895 5894 5893 5893 5891 5890 5889 5887 5886 5885 5883 5882 5881 5880 5879 5878 5877 5876 5875 5874 5873 5872 5871 5871 5870
5933 5932 5932 5932 5932 5932 5932 5932 5931 5930 5930 5930 5929 5928 5927 5926 5925 5925 5924 5923 5923 5923 5922 5922 5921 5920 5919 5918 5917 5916 5915 5914 5912 5911 5910 5908 5907 5905 5903 5902 5901 5900 5898 5897 5896 5895 5894 5894 5894 5893 5892 5891 5891 5890 5889 5888 5887 5885 5884 5882 5881 5880 5879 5878 5877 5876 5875 5874 5873 5872 5871 5871 5870 5869
5930 5930 5931 5931 5931 5931 5930 5930 5930 5929 5928 5928 5927 5926 5925 5925 5924 5924 5923 5922 5922 5921 5921 5920 5920 5919 5918 5917 5916 5915 5913 5912 5911 5910 5909 5907 5906 5904 5902 5900 5899 5898 5897 5895 5894 5893 5892 5892 5891 5891 5890 5889 5888 5888 5887 5886 5885 5884 5882 5881 5880 5879 5878 5877 5876 5875 5874 5873 5872 5871 5870 5869 5869 5868
5930 5929 5930 5930 5929 5928 5927 5927 5927 5927 5926 5925 5925 5924 5923 5923 5923 5922 5922 5921 5920 5919 5919 5918 5918 5917 5916 5915 5914 5913 5912 5910 5909 5908 5907 5906 5904 5903 5901 5899 5898 5897 5895 5894 5893 5891 5890 5890 5889 5888 5887 5887 5886 5885 5884 5884 5883 5882 5880 5879 5878 5877 5876 5875 5874 5873 5872 5871 5870 5869 5868 5867 5866 5866
5928 5928 5928 5927 5927 5926 5925 5925 5925 5924 5924 5924 5923 5922 5922 5921 5921 5921 5920 5919 5919 5918 5917 5916 5915 5914 5914 5913 5912 5911 5910 5909 5908 5906 5905 5904 5903 5901 5899 5898 5897 5895 5894 5893 5891 5890 5889 5887 5887 5886 5885 5884 5883 5882 5882 5881 5880 5879 5878 5877 5876 5874 5873 5872 5871 5871 5870 5869 5868 5867 5866 5865 5864 5863
5927 5927 5926 5926 5925 5924 5923 5923 5923 5923 5923 5922 5922 5921 5920 5920 5919 5919 5918 5918 5917 5916 5915 5914 5913 5912 5912 5911 5910 5909 5908 5907 5906 5905 5904 5902 5901 5899 5898 5897 5896 5894 5893 5892 5890 5889 5887 5886 5885 5884 5883 5882 5881 5880 5879 5878 5878 5877 5876 5875 5873 5872 5871 5870 5869 5868 5867 5866 5866 5865 5864 5863 5862 5861
5926 5925 5924 5924 5923 5922 5922 5922 5922 5922 5922 5921 5920 5919 5918 5918 5917 5917 5916 5916 5915 5914 5913 5912 5911 5911 5910 5908 5907 5906 5905 5904 5904 5903 5902 5901 5899 5898 5896 5895 5894 5893 5891 5890 5889 5887 5885 5884 5883 5882 5881 5880 5879 5878 5877 5876 5875 5874 5874 5872 5871 5870 5869 5868 5866 5865 5864 5863 5862 5862 5861 5861 5860 5859
5923 5923 5922 5922 5921 5921 5921 5920 5920 5919 5919 5918 5918 5917 5916 5916 5915 5915 5914 5914 5913 5911 5911 5910 5909 5908 5908 5906 5905 5904 5903 5902 5902 5901 5900 5899 5897 5896 5895 5894 5892 5891 5889 5888 5886 5885 5883 5882 5881 5880 5879 5877 5876 5875 5874 5873 5872 5872 5871 5870 5869 5868 5866 5865 5864 5863 5862 5861 5859 5859 5858 5857 5857 5856
5921 5921 5920 5919 5919 5918 5918 5917 5916 5916 5916 5916 5916 5915 5914 5913 5912 5912 5912 5911 5910 5909 5908 5907 5906 5905 5905 5904 5903 5902 5901 5900 5899 5898 5897 5896 5895 5893 5892 5891 5890 5888 5887 5886 5884 5882 5880 5879 5878 5877 5876 5875 5873 5872 5871 5870 5869 5868 5867 5866 5865 5864 5864 5863 5862 5860 5859 5858 5857 5856 5855 5854 5853 5853
5918 5918 5918 5917 5916 5916 5915 5915 5914 5914 5914 5913 5912 5911 5911 5910 5910 5909 5909 5908 5907 5906 5905 5904 5903 5902 5902 5901 5900 5899 5898 5898 5897 5896 5895 5894 5892 5891 5890 5888 5887 5886 5885 5884 5882 5880 5878 5877 5876 5874 5873 5872 5871 5869 5868 5866 5865 5864 5863 5862 5861 5860 5860 5859 5858 5857 5856 5855 5854 5853 5852 5851 5850 5849
5916 5916 5915 5915 5914 5913 5913 5913 5913 5911 5910 5909 5909 5909 5908 5908 5907 5906 5906 5905 5904 5903 5903 5901 5900 5900 5899 5898 5897 5896 5895 5895 5894 5893 5892 5891 5890 5888 5887 5886 5884 5883 5882 5881 5879 5878 5876 5875 5873 5872 5870 5869 5868 5867 5865 5864 5862 5861 5859 5858 5857 5856 5855 5855 5854 5853 5852 5851 5850 5849 5848 5847 5846 5844
5913 5913 5912 5912 5911 5911 5911 5911 5910 5909 5908 5907 5907 5906 5906 5905 5904 5903 5903 5902 5901 5900 5900 5899 5898 5897 5896 5895 5894 5893 5892 5891 5890 5889 5888 5888 5887 5885 5884 5883 5881 5880 5878 5877 5876 5874 5873 5871 5870 5868 5867 5865 5864 5863 5862 5861 5859 5858 5856 5855 5854 5852 5851 5850 5850 5849 5848 5848 5847 5847 5845 5843 5841 5840
5910 5909 5909 5909 5909 5908 5908 5908 5908 5906 5906 5905 5904 5903 5903 5902 5902 5901 5900 5899 5898 5897 5897 5896 5895 5894 5893 5892 5891 5890 5889 5888 5887 5885 5884 5884 5884 5882 5880 5879 5878 5877 5875 5874 5873 5871 5869 5867 5865 5864 5862 5861 5859 5858 5857 5856 5855 5854 5853 5851 5850 5849 5848 5847 5846 5845 5844 5844 5844 5843 5842 5839 5837 5835
5906 5906 5906 5906 5905 5905 5904 5904 5904 5903 5902 5902 5901 5900 5899 5899 5898 5897 5896 5896 5895 5894 5894 5893 5892 5891 5889 5888 5888 5886 5885 5884 5883 5881 5880 5879 5879 5878 5877 5875 5874 5872 5871 5870 5869 5867 5865 5863 5861 5860 5858 5856 5855 5854 5852 5851 5850 5849 5848 5847 5845 5844 5843 5842 5841 5840 5840 5839 5839 5838 5837 5835 5833 5831
5903 5903 5902 5902 5902 5901 5901 5900 5900 5900 5899 5898 5898 5897 5896 5895 5893 5892 5892 5892 5891 5891 5890 5890 5889 5887 5886 5885 5884 5882 5881 5880 5878 5877 5876 5875 5873 5872 5872 5871 5870 5868 5867 5865 5864 5862 5861 5859 5857 5856 5854 5852 5851 5849 5848 5847 5846 5845 5844 5842 5841 5840 5838 5837 5836 5835 5835 5834 5833 5833 5832 5831 5829 5827
5899 5899 5898 5899 5899 5899 5898 5897 5897 5896 5895 5895 5895 5894 5892 5891 5890 5889 5888 5888 5887 5887 5886 5885 5885 5884 5882 5881 5880 5878 5877 5876 5875 5873 5872 5871 5869 5868 5867 5866 5865 5864 5862 5861 5859 5858 5856 5855 5853 5852 5850 5848 5847 5845 5844 5843 5842 5841 5839 5838 5837 5836 5834 5833 5832 5831 5830 5829 5828 5827 5826 5825 5824 5823
5896 5895 5894 5895 5895 5896 5895 5894 5892 5892 5891 5891 5891 5890 5889 5887 5887 5886 5885 5884 5883 5882 5881 5881 5880 5879 5878 5877 5876 5874 5873 5872 5870 5869 5868 5866 5865 5863 5862 5860 5859 5858 5857 5855 5854 5853 5852 5850 5848 5847 5846 5845 5844 5842 5840 5839 5838 5837 5836 5834 5833 5831 5830 5829 5828 5826 5825 5824 5822 5821 5820 5819 5818 5816
5891 5891 5891 5891 5891 5891 5891 5890 5889 5888 5887 5887 5886 5885 5884 5883 5882 5881 5880 5879 5878 5877 5876 5875 5874 5873 5873 5872 5871 5869 5868 5867 5865 5864 5863 5861 5860 5858 5857 5855 5854 5853 5851 5850 5849 5848 5847 5846 5844 5843 5841 5840 5840 5839 5837 5835 5834 5833 5831 5830 5828 5827 5826 5824 5823 5821 5820 5818 5817 5815 5814 5812 5811 5810
5887 5888 5888 5888 5887 5887 5886 5886 5885 5884 5883 5882 5881 5880 5880 5879 5877 5876 5875 5874 5873 5872 5871 5870 5869 5868 5867 5866 5865 5864 5863 5861 5860 5859 5857 5856 5855 5853 5852 5850 5849 5848 5847 5846 5844 5844 5843 5842 5841 5839 5838 5836 5835 5834 5832 5831 5830 5828 5827 5826 5824 5823 5821 5819 5818 5816 5814 5813 5811 5809 5808 5806 5805 5803
5884 5884 5884 5883 5883 5883 5882 5882 5881 5880 5879 5878 5876 5875 5875 5874 5873 5872 5870 5869 5868 5867 5866 5865 5864 5863 5862 5861 5859 5858 5857 5856 5855 5854 5852 5851 5850 5848 5847 5846 5845 5844 5843 5842 5841 5840 5839 5838 5836 5835 5834 5832 5831 5829 5828 5826 5825 5823 5822 5820 5819 5817 5816 5814 5813 5811 5809 5807 5805 5803 5802 5800 5799 5797
5880 5880 5879 5879 5878 5878 5878 5877 5876 5875 5874 5873 5871 5870 5870 5869 5868 5867 5865 5864 5863 5862 5861 5860 5859 5858 5857 5856 5854 5853 5852 5851 5849 5848 5847 5846 5845 5844 5843 5842 5841 5841 5840 5838 5837 5836 5835 5834 5832 5830 5829 5827 5826 5824 5823 5821 5820 5818 5816 5815 5813 5811 5810 5808 5806 5805 5803 5801 5799 5797 5795 5794 5792 5790
5874 5874 5874 5874 5873 5873 5873 5872 5871 5870 5869 5867 5866 5865 5864 5864 5863 5862 5860 5859 5858 5857 5856 5856 5855 5854 5852 5851 5849 5848 5847 5845 5845 5844 5843 5842 5841 5840 5839 5838 5837 5837 5836 5835 5833 5832 5831 5829 5828 5826 5824 5822 5820 5819 5817 5815 5814 5813 5811 5809 5807 5805 5803 5801 5799 5797 5795 5793 5792 5790 5788 5786 5784 5781
5869 5869 5869 5868 5868 5868 5867 5867 5866 5865 5864 5862 5861 5860 5859 5859 5858 5857 5856 5855 5854 5853 5853 5852 5851 5849 5847 5846 5844 5843 5842 5842 5841 5840 5839 5839 5838 5837 5836 5834 5833 5832 5831 5830 5829 5827 5826 5824 5823 5821 5819 5818 5816 5814 5811 5809 5808 5806 5804 5802 5800 5798 5796 5794 5792 5790 5787 5785 5783 5781 5779 5777 5775 5773
5863 5863 5862 5862 5862 5862 5861 5861 5860 5859 5858 5857 5856 5855 5854 5854 5853 5852 5851 5850 5849 5849 5848 5847 5845 5844 5842 5841 5840 5840 5839 5839 5838 5837 5836 5835 5834 5833 5832 5831 5829 5828 5827 5825 5824 5822 5820 5819 5817 5815 5814 5812 5810 5808 5806 5803 5801 5799 5797 5794 5792 5791 5789 5786 5784 5782 5780 5777 5775 5773 5770 5768 5766 5763
5857 5857 5856 5856 5856 5856 5856 5855 5854 5853 5853 5852 5851 5851 5850 5849 5848 5847 5846 5845 5845 5844 5842 5841 5840 5839 5838 5837 5837 5836 5836 5835 5834 5833 5832 5831 5830 5829 5828 5826 5825 5824 5822 5820 5818 5817 5815 5813 5811 5809 5807 5805 5803 5801 5799 5797 5794 5792 5790 5787 5784 5782 5780 5777 5775 5773 5770 5767 5765 5762 5760 5757 5755 5752
5851 5851 5850 5850 5850 5850 5849 5849 5848 5848 5847 5847 5846 5845 5845 5844 5843 5842 5841 5840 5839 5838 5837 5836 5835 5835 5834 5834 5833 5833 5832 5831 5830 5829 5828 5826 5825 5824 5822 5821 5820 5818 5817 5815 5813 5812 5810 5808 5806 5804 5802 5799 5797 5795 5792 5789 5787 5784 5782 5779 5776 5773 5771 5768 5765 5763 5760 5756 5753 5751 5748 5744 5742 5740
5845 5845 5845 5844 5844 5844 5843 5843 5842 5842 5842 5841 5841 5840 5840 5839 5838 5837 5836 5835 5834 5833 5833 5832 5832 5831 5831 5830 5829 5828 5827 5826 5825 5824 5823 5821 5820 5819 5817 5816 5814 5813 5811 5809 5808 5806 5804 5802 5799 5797 5795 5792 5789 5787 5784 5781 5778 5776 5773 5770 5767 5764 5761 5758 5755 5752 5749 5745 5741 5739 5736 5732 5729 5727
5839 5839 5839 5839 5838 5838 5837 5837 5837 5836 5836 5835 5835 5835 5834 5834 5833 5833 5832 5831 5830 5830 5829 5829 5828 5827 5826 5826 5825 5824 5823 5822 5821 5819 5818 5817 5815 5814 5812 5810 5809 5807 5804 5802 5800 5798 5796 5794 5792 5790 5787 5784 5781 5778 5775 5772 5769 5767 5764 5761 5758 5754 5751 5748 5744 5741 5738 5735 5730 5726 5723 5720 5717 5714
5833 5833 5833 5833 5832 5832 5831 5831 5831 5831 5831 5830 5831 5830 5830 5830 5829 5829 5828 5827 5827 5826 5825 5825 5824 5823 5822 5821 5821 5820 5819 5818 5816 5815 5813 5811 5810 5808 5806 5805 5803 5800 5798 5795 5793 5790 5788 5785 5783 5781 5779 5776 5773 5770 5767 5764 5761 5758 5754 5751 5748 5745 5741 5738 5734 5730 5727 5725 5720 5714 5710 5708 5705 5702
5827 5827 5827 5826 5826 5825 5825 5825 5825 5826 5826 5826 5827 5827 5826 5826 5826 5825 5825 5824 5823 5823 5822 5821 5820 5820 5819 5818 5817 5815 5814 5813 5811 5810 5808 5806 5804 5802 5800 5798 5796 5794 5791 5788 5786 5782 5779 5777 5774 5771 5769 5766 5763 5761 5759 5756 5751 5748 5745 5741 5738 5735 5731 5727 5723 5718 5715 5714 5710 5703 5698 5695 5693 5690
5820 5820 5820 5820 5820 5820 5820 5820 5821 5822 5822 5823 5823 5823 5823 5823 5822 5822 5821 5821 5820 5820 5819 5818 5817 5816 5815 5814 5812 5811 5809 5807 5806 5804 5802 5800 5798 5796 5794 5792 5790 5787 5784 5782 5779 5776 5772 5769 5766 5763 5760 5757 5753 5750 5750 5747 5741 5737 5734 5731 5727 5724 5720 5716 5712 5707 5703 5701 5697 5693 5687 5683 5680 5679
5814 5815 5815 5815 5814 5815 5816 5817 5818 5819 5819 5820 5820 5820 5820 5820 5819 5819 5819 5818 5817 5817 5816 5815 5814 5812 5811 5809 5808 5806 5804 5802 5800 5799 5796 5794 5792 5789 5787 5785 5782 5780 5777 5774 5772 5769 5765 5762 5759 5755 5752 5748 5743 5739 5738 5737 5733 5726 5723 5720 5717 5713 5708 5705 5701 5696 5691 5688 5685 5682 5677 5673 5671 5669
5809 5809 5810 5810 5810 5811 5813 5814 5815 5815 5816 5816 5816 5816 5817 5817 5816 5816 5816 5815 5814 5813 5812 5811 5809 5808 5806 5805 5803 5801 5799 5797 5795 5793 5790 5788 5786 5783 5780 5777 5774 5772 5769 5766 5764 5761 5758 5754 5751 5747 5743 5740 5736 5730 5727 5726 5724 5719 5712 5708 5706 5702 5697 5692 5689 5684 5681 5677 5674 5671 5669 5666 5663 5661
5804 5805 5805 5806 5807 5809 5810 5811 5812 5812 5813 5813 5813 5813 5813 5813 5813 5813 5812 5811 5810 5809 5808 5806 5805 5803 5801 5800 5798 5796 5793 5791 5789 5786 5784 5781 5779 5776 5773 5770 5767 5764 5762 5759 5756 5753 5750 5746 5743 5739 5735 5731 5728 5723 5718 5714 5712 5709 5704 5698 5694 5690 5686 5682 5678 5675 5672 5669 5666 5663 5660 5658 5656 5653
5800 5801 5802 5804 5805 5806 5807 5808 5809 5809 5810 5810 5810 5810 5810 5810 5810 5809 5808 5807 5806 5805 5803 5802 5800 5798 5796 5794 5792 5790 5787 5785 5782 5780 5777 5774 5772 5769 5766 5763 5760 5757 5754 5751 5748 5745 5742 5738 5735 5731 5728 5723 5718 5715 5710 5704 5699 5696 5694 5689 5685 5681 5677 5673 5670 5667 5664 5661 5658 5654 5651 5650 5648 5645
5798 5799 5801 5802 5803 5803 5804 5805 5806 5806 5807 5807 5807 5807 5807 5806 5806 5805 5804 5803 5801 5800 5798 5796 5794 5792 5790 5788 5786 5784 5781 5778 5776 5773 5771 5768 5765 5763 5760 5756 5753 5750 5747 5743 5740 5737 5734 5730 5726 5722 5718 5714 5709 5704 5700 5696 5690 5685 5682 5679 5677 5674 5670 5666 5663 5659 5656 5653 5651 5647 5644 5641 5640 5638
5796 5797 5798 5799 5800 5801 5802 5803 5803 5804 5804 5804 5804 5804 5803 5803 5802 5801 5799 5798 5796 5795 5793 5791 5789 5787 5784 5782 5780 5777 5775 5772 5770 5767 5764 5762 5759 5756 5753 5750 5746 5743 5740 5736 5733 5729 5725 5721 5717 5712 5707 5703 5699 5694 5690 5686 5682 5677 5672 5669 5668 5666 5663 5660 5656 5653 5650 5647 5644 5641 5637 5634 5632 5630
5795 5796 5797 5798 5799 5799 5800 5801 5801 5801 5801 5801 5800 5800 5799 5798 5797 5796 5794 5793 5791 5789 5787 5785 5783 5781 5779 5776 5774 5771 5769 5766 5763 5761 5758 5755 5752 5749 5746 5743 5739 5736 5733 5729 5725 5720 5716 5712 5707 5702 5697 5692 5688 5685 5681 5677 5674 5670 5665 5662 5659 5658 5656 5653 5649 5646 5644 5641 5638 5635 5632 5629 5626 5624
5793 5794 5795 5796 5797 5797 5798 5798 5798 5798 5797 5797 5796 5796 5795 5794 5792 5791 5789 5787 5786 5783 5781 5779 5777 5775 5773 5770 5768 5765 5763 5760 5757 5754 5751 5748 5745 5742 5739 5736 5732 5728 5725 5720 5715 5711 5706 5702 5697 5692 5687 5683 5679 5676 5672 5669 5666 5663 5659 5656 5652 5650 5648 5645 5643 5640 5638 5635 5633 5630 5627 5624 5621 5619
5792 5793 5794 5794 5795 5795 5795 5795 5794 5794 5794 5793 5792 5791 5790 5789 5787 5785 5783 5781 5779 5777 5775 5773 5771 5769 5767 5764 5762 5759 5756 5753 5750 5748 5745 5742 5739 5735 5732 5728 5723 5719 5715 5711 5706 5701 5696 5692 5687 5683 5679 5675 5671 5668 5665 5662 5659 5656 5653 5651 5647 5644 5641 5639 5636 5634 5632 5629 5627 5624 5622 5619 5617 5614
5791 5791 5792 5792 5792 5792 5792 5791 5791 5790 5789 5788 5787 5786 5785 5783 5781 5780 5778 5776 5774 5772 5770 5768 5766 5763 5761 5758 5755 5752 5750 5747 5744 5741 5738 5735 5731 5727 5723 5718 5714 5709 5705 5701 5696 5691 5687 5683 5678 5674 5671 5668 5665 5662 5659 5656 5653 5650 5648 5646 5643 5640 5637 5634 5631 5629 5626 5624 5622 5620 5617 5614 5612 5609